Regional Weather Roundup
Issued by NWS

Home | Current Version | Previous Version | Text Only | Print | Product List | Glossary Off
Versions: 1 2 3 4 5 6 7 8 9 10 11 12 13 14 15 16 17 18 19 20 21 22 23 24 25 26 27 28 29 30 31 32 33 34 35 36 37 38 39 40 41 42 43 44 45 46 47 48 49 50

000
ASUS43 KMKX 270821
RWRWI

WISCONSIN REGIONAL WEATHER ROUNDUP
NATIONAL WEATHER SERVICE MILWAUKEE/SULLIVAN WI
300 AM CDT WED AUG 27 2014

NOTE: "FAIR" INDICATES FEW OR NO CLOUDS BELOW 12,000 FEET WITH NO
SIGNIFICANT WEATHER AND/OR OBSTRUCTIONS TO VISIBILITY.

WIZ001-002-006>008-014>016-023>028-270900-
NORTHWEST WISCONSIN

CITY           SKY/WX    TMP DP  RH WIND       PRES   REMARKS
SUPERIOR ARPT  CLOUDY    54  53  95 CALM      30.19F
ASHLAND        CLOUDY    56  53  90 W3        30.19S
HAYWARD        CLOUDY    57  56  96 CALM      30.21R
SIREN          CLOUDY    57  55  94 CALM      30.21F
RICE LAKE      CLOUDY    58  55  89 W3        30.21S
LADYSMITH      CLOUDY    58  55  90 CALM      30.20F
EAU CLAIRE     LGT RAIN  61  59  93 CALM      30.18S
MENOMONIE      CLOUDY    61  57  88 NW5       30.19S
NEW RICHMOND   CLOUDY    58  57  96 CALM      30.21R
OSCEOLA        CLOUDY    60  59  98 CALM      30.23S
$$

WIZ003>005-009-010-017-018-270900-
NORTH CENTRAL WISCONSIN

CITY           SKY/WX    TMP DP  RH WIND       PRES   REMARKS
WOODRUFF       LGT RAIN  57  55  92 CALM      30.19F
RHINELANDER    LGT RAIN  56  53  90 NW5       30.20R
EAGLE RIVER    LGT RAIN  53  53  99 CALM      30.18S
LAND O LAKES   CLOUDY    53  53  99 CALM      30.19F
PHILLIPS       LGT RAIN  55  53  96 CALM      30.19F
TOMAHAWK       LGT RAIN  54  52  94 CALM      30.19F
MEDFORD        LGT RAIN  56  55  95 CALM      30.18S
MERRILL        RAIN      56  56  98 CALM      30.19S
$$

WIZ029-030-035-036-043>047-270900-
CENTRAL WISCONSIN

CITY           SKY/WX    TMP DP  RH WIND       PRES   REMARKS
WAUSAU         CLOUDY    59  55  87 CALM      30.17R
MOSINEE        CLOUDY    59  54  82 NE3       30.19S
MARSHFIELD     CLOUDY    62  53  72 N3        30.18R
STEVENS POINT  CLOUDY    57  53  87 CALM      30.19R
WAUPACA        CLOUDY    62  57  83 N3        30.18R
WAUTOMA        LGT RAIN  62  56  81 N5        30.17R
WISC RAPIDS    CLOUDY    62  55  77 N6        30.19R
CAMP DOUGLAS   CLOUDY    58  58 100 CALM      30.17S
$$

WIZ011>013-019>022-031-037>040-048>050-270900-
NORTHEAST WISCONSIN

CITY           SKY/WX    TMP DP  RH WIND       PRES   REMARKS
ANTIGO         CLOUDY    55  53  92 N3        30.19S
STURGEON BAY   CLOUDY    59  52  77 NE3       30.17R
GREEN BAY      CLOUDY    59  55  87 N6        30.16R
MANITOWOC      CLOUDY    62  59  90 N6        30.15R
APPLETON       CLOUDY    61  52  72 N8        30.17R
CLINTONVILLE   CLOUDY    57  54  88 CALM      30.18R
OSHKOSH        CLOUDY    63  56  78 N8        30.15R
$$

WIZ032>034-041-042-053>061-270900-
SOUTHWEST WISCONSIN

CITY           SKY/WX    TMP DP  RH WIND       PRES   REMARKS
LA CROSSE      CLOUDY    64  59  83 CALM      30.17S
SPARTA         CLOUDY    57  56  96 CALM      30.18S
VIROQUA        CLOUDY    60  59  96 N5        30.18S
BOSCOBEL       CLOUDY    63  60  90 CALM      30.16S
PRAIRIE DU CHI MOCLDY    63  58  81 CALM      30.16R
PLATTEVILLE    MOCLDY    64  61  90 CALM      30.17R
$$

WIZ056-057-062-063-064-067-068-270900-
SOUTH CENTRAL WISCONSIN

CITY           SKY/WX    TMP DP  RH WIND       PRES   REMARKS
BARABOO/DELLS  CLOUDY    62  56  81 CALM      30.16F
LONE ROCK      CLOUDY    69  58  67 CALM      30.16R
WATERTOWN      CLOUDY    63  59  88 NW5       30.14S
MADISON        CLOUDY    63  59  87 N3        30.16R
MIDDLETON      CLOUDY    64  62  93 CALM      30.17R
MONROE         CLOUDY    63  61  94 NE3       30.15S
JANESVILLE     LGT RAIN  66  55  68 NE3       30.13F
$$

WIZ051-052-058>065-066-070>072-270900-
SOUTHEAST WISCONSIN

CITY           SKY/WX    TMP DP  RH WIND       PRES   REMARKS
MILWAUKEE      CLOUDY    67  57  70 NW3       30.13R
WAUKESHA       CLOUDY    61  55  82 CALM      30.15S
MILWAUKEE/TIMM CLOUDY    63  55  77 N3        30.14S
RACINE         CLOUDY    67  60  78 N3        30.15R
BURLINGTON     CLOUDY    61  59  92 N3        30.14S
KENOSHA        CLOUDY    65  60  84 CALM      30.14R
FOND DU LAC    CLOUDY    63  57  81 NW6       30.14F
SHEBOYGAN      CLOUDY    62  57  83 NW7       30.14R
WEST BEND      CLOUDY    63  55  77 NW3       30.14S
JUNEAU         CLOUDY    62  56  83 CALM      30.16R
$$

LSZ147-162-270900-
LAKE SUPERIOR

STATION/POSITION TIME  TEMP    WIND        PRES    WAVE
                       AIR SEA DIR/SP/G            HT/PER
                 (UTC) (F)     (DEG/KT/KT) (MB)    (FT/S)
W MID LAKE BUOY  0750   57 55  280/  6/  6 1021.2S   1/ 3
DEVILS ISLAND    0800   58     290/  7/  8 1022.3R
PORT WING        0700   60     290/  8/ 10 1022.4
SAXON HARBOR     0700   58     160/  3/  5 1022.0S
$$

LMZ867-665-643>646-270900-
LAKE MICHIGAN

STATION/POSITION TIME  TEMP    WIND        PRES    WAVE
                       AIR SEA DIR/SP/G            HT/PER
                 (UTC) (F)     (DEG/KT/KT) (MB)    (FT/S)
N MID LAKE BUOY  0750   63 65  360/ 10/ 12 1020.6R   2/ 4
NORTHPORT PIER   0700   63      20/  6/  8 1020.3F
SISTER BAY       0711   61        CALM       N/A
KEWAUNEE LAKESHO 0800   63      40/ 12/ 15 1019.7R
SHEBOYGAN LAKESH 0800   65 64  330/  9/ 10 1020.6R
ATWATER BUOY     0800   67     310/  6/  8 1021.4R
MILWAUKEE LAKESH 0800   67     340/  7/  8   N/A
S MID LAKE BUOY  0750   68 69     CALM     1020.0R   1
KENOSHA   LAKESH 0800   68     330/  4/  7 1020.0R
$$

TC  - TEMPERATURE IN CELSIUS
VSB - VISIBILITY IN STATUTE MILES
WCI - WIND CHILL INDEX
HX  - HEAT INDEX




USA.gov is the U.S. government's official web portal to all federal, state and local government web resources and services.